Regional Weather Roundup
Issued by NWS

Home | Current Version | Previous Version | Graphics & Text | Print | Product List | Glossary On
Versions: 1 2 3 4 5 6 7 8 9 10 11 12 13 14 15 16 17 18 19 20 21 22 23 24 25 26 27 28 29 30 31 32 33 34 35 36 37 38 39 40 41 42 43 44 45 46 47 48 49 50
202
ASUS43 KTOP 270759
RWRKS

WEATHER ROUNDUP FOR KANSAS
NATIONAL WEATHER SERVICE GOODLAND KS
300 AM CDT TUE SEP 27 2016

NOTE:  "FAIR" INDICATES FEW OR NO CLOUDS BELOW 12,000 FEET WITH NO
SIGNIFICANT WEATHER AND/OR OBSTRUCTIONS TO VISIBILITY.

KSZ001>006-013>018-027>032-041>047-270900-
NORTHWEST KANSAS

CITY           SKY/WX    TMP DP  RH WIND       PRES   REMARKS
GOODLAND       CLEAR     49  40  71 SW9       30.21S
HAYS           CLEAR     48  36  61 W5        30.13F
HILL CITY      CLEAR     50  44  80 W6        30.14S
RUSSELL        CLEAR     54  43  66 S10       30.11F
$$

KSZ061>065-074>080-084>089-270900-
SOUTHWEST KANSAS

CITY           SKY/WX    TMP DP  RH WIND       PRES   REMARKS
DODGE CITY     CLEAR     55  37  50 SW10      30.18S
ELKHART          N/A     56  34  43 SW8         N/A
GARDEN CITY    CLEAR     51  36  56 W8        30.18F
GREAT BEND     CLEAR     52  39  62 SW8       30.14F
LIBERAL        CLOUDY    52  34  50 SW8       30.22S
$$

KSZ066>073-081>083-090>101-270900-
SOUTHEAST KANSAS

CITY           SKY/WX    TMP DP  RH WIND       PRES   REMARKS
CHANUTE        CLEAR     52  48  86 SW6       30.13F
COFFEYVILLE    CLEAR     49  48  97 CALM      30.15F
HUTCHINSON     CLEAR     56  46  69 SW6       30.14F
MEDICINE LODGE   N/A     50  47  89 CALM      30.17F
NEWTON         CLEAR    N/A N/A N/A SW8       30.14F
PARSONS        CLEAR     48  46  93 CALM      30.15F
WICHITA INTL   CLEAR     53  47  79 SW7       30.14F
WICHITA JABRA  CLEAR     58  46  64 SW8       30.14F
WINFIELD       CLEAR     55  49  80 CALM      30.16F
$$

KSZ007>012-019>026-033>040-048>060-102>105-270900-
NORTHEAST KANSAS

CITY           SKY/WX    TMP DP  RH WIND       PRES   REMARKS
CONCORDIA      CLEAR     56  44  64 SW9       30.10F
EMPORIA        CLEAR     52  47  83 SW7       30.12F
LAWRENCE       CLEAR     49  49 100 CALM      30.10F
MANHATTAN      CLEAR     49  48  97 CALM      30.10F
OLATHE IND     CLEAR     54  47  77 SW7       30.10F
OLATHE EXE     CLEAR     56  45  66 SW6       30.10S
SALINA         CLEAR     55  46  71 S8        30.11F
TOPEKA BILLARD CLEAR     55  48  77 CALM      30.09F
TOPEKA FORBES  CLEAR     57  46  66 SW5       30.09F
$$




USA.gov is the U.S. government's official web portal to all federal, state and local government web resources and services.